Tracking 18840 objects as of 18-November-2017
HD Live streaming from Space Station
objects crossing your sky now

OPS 6182 (DMSP 5D-1 F2)

Track OPS 6182 (DMSP 5D-1 F2) now!
10-day predictions
OPS 6182 (DMSP 5D-1 F2) is classified as:


NORAD ID: 10820
Int'l Code: 1978-042A
Perigee: 775.5 km
Apogee: 788.0 km
Inclination: 98.6 °
Period: 100.3 minutes
Semi major axis: 7152 km
RCS: 4.1055 m2 (large)
Launch date: May 1, 1978
Source: United States (US)
Launch site: AIR FORCE WESTERN TEST RANGE (AFWTR)
aabbcc
Your satellite tracking list
Your tracking list is empty




NASA's NSSDC Master Catalog

Two Line Element Set (TLE):
1 10820U 78042A   17322.09807123  .00000110  00000-0  53974-4 0  9991
2 10820  98.5588 149.0718 0008683 310.0665  49.9758 14.35134037 63420
Source of the keplerian elements: AFSPC